TimeCST,TemperatureF,Dew PointF,Humidity,Sea Level PressureIn,VisibilityMPH,Wind Direction,Wind SpeedMPH,Gust SpeedMPH,PrecipitationIn,Events,Conditions,WindDirDegrees,DateUTC
12:24 AM,8.1,3.9,83,30.07,4.0,NNE,15.0,-,0.00,Snow,Light Snow,20,2014-02-16 06:24:00
12:53 AM,8.1,3.9,83,30.16,5.0,North,13.8,-,0.00,Snow,Light Snow,10,2014-02-16 06:53:00
1:53 AM,5.0,1.0,84,30.18,7.0,North,10.4,-,0.00,,Overcast,360,2014-02-16 07:53:00
2:22 AM,-0.9,-5.1,83,30.12,3.0,North,6.9,-,0.00,Snow,Light Snow,360,2014-02-16 08:22:00
2:29 AM,-0.0,-2.0,91,30.11,1.8,North,8.1,-,0.00,Snow,Light Snow,10,2014-02-16 08:29:00
2:36 AM,-0.0,-2.0,91,30.11,2.0,North,8.1,-,0.00,Snow,Light Snow,10,2014-02-16 08:36:00
2:44 AM,-0.0,-2.9,88,30.11,4.0,North,6.9,-,0.00,Snow,Light Snow,10,2014-02-16 08:44:00
2:53 AM,-0.9,-2.9,91,30.18,3.0,North,5.8,-,0.00,Snow,Light Snow,10,2014-02-16 08:53:00
3:01 AM,1.0,-2.0,87,30.11,4.0,North,5.8,-,0.00,Snow,Light Snow,10,2014-02-16 09:01:00
3:21 AM,-2.0,-4.0,91,30.11,1.8,North,6.9,-,0.00,Snow,Light Snow,10,2014-02-16 09:21:00
3:36 AM,1.0,-2.0,87,30.12,3.0,North,6.9,-,0.00,Snow,Light Snow,360,2014-02-16 09:36:00
3:53 AM,3.0,-0.0,87,30.19,4.0,North,8.1,-,0.00,,Overcast,10,2014-02-16 09:53:00
4:39 AM,5.0,1.0,84,30.15,2.5,North,6.9,-,0.00,Snow,Light Snow,10,2014-02-16 10:39:00
4:53 AM,5.0,1.9,87,30.22,2.5,NNE,9.2,-,0.00,Snow,Light Snow,20,2014-02-16 10:53:00
5:01 AM,5.0,1.9,87,30.16,3.0,NNE,9.2,-,0.00,,Overcast,20,2014-02-16 11:01:00
5:53 AM,6.1,1.9,83,30.25,9.0,NNE,13.8,-,0.00,,Overcast,20,2014-02-16 11:53:00
6:53 AM,5.0,1.9,87,30.28,2.0,NNE,11.5,-,0.00,Snow,Light Snow,30,2014-02-16 12:53:00
7:09 AM,5.0,1.9,87,30.22,1.2,NNE,10.4,-,0.00,Snow,Light Snow,30,2014-02-16 13:09:00
7:53 AM,5.0,1.0,84,30.30,1.0,NNE,9.2,-,0.00,Snow,Light Snow,30,2014-02-16 13:53:00
8:20 AM,3.9,-0.0,84,30.24,0.8,NNE,9.2,-,0.00,Snow,Light Snow,30,2014-02-16 14:20:00
8:53 AM,5.0,1.0,84,30.31,0.5,NNE,8.1,-,0.00,Fog-Snow,Light Snow,20,2014-02-16 14:53:00
9:09 AM,7.0,1.9,80,30.24,1.5,ENE,12.7,-,0.00,Snow,Light Snow,70,2014-02-16 15:09:00
9:17 AM,7.0,1.9,80,30.24,3.0,ENE,12.7,-,0.00,,Haze,70,2014-02-16 15:17:00
9:53 AM,8.1,3.0,80,30.33,4.0,NE,9.2,-,0.00,,Haze,40,2014-02-16 15:53:00
10:13 AM,8.1,3.0,80,30.28,2.5,NE,8.1,-,N/A,,Haze,50,2014-02-16 16:13:00
10:36 AM,9.0,3.0,77,30.28,3.0,NE,6.9,-,N/A,,Haze,50,2014-02-16 16:36:00
10:53 AM,10.0,3.0,73,30.35,4.0,NE,6.9,-,N/A,,Haze,50,2014-02-16 16:53:00
11:53 AM,9.0,3.0,77,30.35,7.0,North,10.4,-,N/A,,Overcast,360,2014-02-16 17:53:00
12:53 PM,10.0,3.9,76,30.32,10.0,North,10.4,-,N/A,,Mostly Cloudy,10,2014-02-16 18:53:00
1:07 PM,10.0,3.9,76,30.26,10.0,North,11.5,-,N/A,,Scattered Clouds,10,2014-02-16 19:07:00
1:53 PM,10.0,3.9,76,30.30,10.0,NNE,10.4,-,N/A,,Clear,30,2014-02-16 19:53:00
2:33 PM,10.9,5.0,77,30.23,9.0,NNE,9.2,-,N/A,,Mostly Cloudy,30,2014-02-16 20:33:00
2:42 PM,12.0,5.0,73,30.23,10.0,NNE,8.1,-,N/A,,Scattered Clouds,20,2014-02-16 20:42:00
2:53 PM,10.9,5.0,77,30.30,10.0,NNE,10.4,-,N/A,,Partly Cloudy,30,2014-02-16 20:53:00
3:53 PM,10.0,3.0,73,30.30,10.0,NE,9.2,-,N/A,,Clear,50,2014-02-16 21:53:00
4:53 PM,7.0,3.0,84,30.28,10.0,ENE,10.4,-,N/A,,Clear,70,2014-02-16 22:53:00
5:53 PM,3.9,1.0,88,30.28,10.0,ENE,6.9,-,N/A,,Clear,60,2014-02-16 23:53:00
6:53 PM,1.0,-2.0,87,30.27,10.0,ENE,4.6,-,N/A,,Clear,60,2014-02-17 00:53:00
7:53 PM,1.9,-0.9,88,30.27,10.0,Calm,Calm,-,N/A,,Clear,0,2014-02-17 01:53:00
8:53 PM,-0.9,-5.1,83,30.25,10.0,Calm,Calm,-,N/A,,Clear,0,2014-02-17 02:53:00
9:53 PM,-0.9,-5.1,83,30.23,10.0,Calm,Calm,-,N/A,,Clear,0,2014-02-17 03:53:00
10:53 PM,3.0,-0.9,84,30.20,10.0,East,4.6,-,N/A,,Clear,80,2014-02-17 04:53:00
11:53 PM,6.1,3.0,87,30.19,10.0,ENE,5.8,-,N/A,,Mostly Cloudy,70,2014-02-17 05:53:00